Home > Weather > Gothenburg > Past weeks

Flag for Sweden Past Weather in Gothenburg, Sweden — Yesterday and Last 2 Weeks

Now
59 °F

Passing clouds.


Feels Like: 59 °F
Forecast: 56 / 68 °F
Wind: 2 mph from Southeast

Location: Gothenburg / Save

Current Time: Jul 29, 2016 at 12:33:36 AM

Latest Report: Jul 28, 2016 at 11:50 PM


Visibility: N/A

Pressure: 29.89 "Hg

Humidity: 88%

Dew Point: 55 °F

Location of GothenburgLocation

Past Weather in Gothenburg — Graph

°F

Gothenburg Temperature Yesterday

Maximum temperature yesterday: 66 °F (at 1:50 PM)
Minimum temperature yesterday: 61 °F (at 5:50 AM)
Average temperature yesterday: 64 °F

High & Low Weather Summary for the Past Weeks

 TemperatureHumidityPressure
High77 °F (Jul 21, 11:20 AM)100% (Jul 15, 4:20 AM)30.12 "Hg (Jul 15, 4:20 AM)
Low48 °F (Jul 19, 2:50 AM)36% (Jul 22, 4:50 PM)29.80 "Hg (Jul 13, 11:20 PM)
Average64 °F77%29.99 "Hg
* Reported Jul 13 11:20 PM — Jul 28 11:20 PM, Gothenburg, Weather by CustomWeather, © 2016

Note: Actual official high and low records may vary slightly from our data, if they occured in-between our weather recording intervals... More about our weather records

Advertising

Gothenburg Weather History for the Previous 24 Hours

Scroll right to see more
 ConditionsComfort  
Time TempWeatherWind HumidityBarometerVisibility
11:20 PM
Thu, Jul 28
61 °FPartly cloudy.1 mph83%29.89 "HgN/A
10:50 PM63 °FOvercast.3 mph77%29.89 "HgN/A
10:20 PM63 °FMostly cloudy.3 mph77%29.89 "HgN/A
9:50 PM63 °FPartly sunny.2 mph77%29.89 "HgN/A
9:20 PM63 °FScattered clouds.3 mph77%29.89 "HgN/A
8:50 PM63 °FScattered clouds.6 mph77%29.89 "HgN/A
8:20 PM64 °FScattered clouds.6 mph73%29.89 "HgN/A
7:50 PM64 °FScattered clouds.7 mph73%29.89 "HgN/A
7:20 PM64 °FScattered clouds.7 mph73%29.89 "HgN/A
6:50 PM66 °FPassing clouds.8 mph68%29.89 "HgN/A
6:20 PM66 °FPassing clouds.8 mph68%29.89 "HgN/A
5:50 PM66 °FScattered clouds.9 mph64%29.89 "HgN/A
5:20 PM66 °FScattered clouds.10 mph64%29.89 "HgN/A
4:50 PM66 °FScattered clouds.8 mph68%29.92 "HgN/A
4:20 PM66 °FScattered clouds.9 mph68%29.92 "HgN/A
3:50 PM66 °FScattered clouds.12 mph68%29.92 "HgN/A
3:20 PM66 °FScattered clouds.12 mph68%29.92 "HgN/A
2:50 PM66 °FScattered clouds.12 mph68%29.92 "HgN/A
2:20 PM66 °FScattered clouds.12 mph68%29.92 "HgN/A
1:50 PM66 °FScattered clouds.10 mph68%29.92 "HgN/A
1:20 PM64 °FPartly sunny.12 mph68%29.92 "HgN/A
12:50 PM64 °FScattered clouds.12 mph68%29.89 "HgN/A
12:20 PM64 °FScattered clouds.12 mph68%29.89 "HgN/A
11:50 AM63 °FPartly sunny.9 mph77%29.89 "HgN/A
11:20 AM64 °FScattered clouds.12 mph73%29.89 "HgN/A
10:50 AM64 °FScattered clouds.13 mph73%29.89 "HgN/A
10:20 AM64 °FPassing clouds.13 mph73%29.89 "HgN/A
9:50 AM64 °FScattered clouds.13 mph68%29.86 "HgN/A
9:20 AM64 °FPassing clouds.12 mph68%29.86 "HgN/A
8:50 AM63 °FPassing clouds.9 mph73%29.86 "HgN/A
8:20 AM63 °FScattered clouds.9 mph73%29.86 "HgN/A
7:50 AM63 °FScattered clouds.10 mph77%29.83 "HgN/A
7:20 AM63 °FScattered clouds.8 mph83%29.83 "HgN/A
6:50 AM61 °FPartly sunny.7 mph88%29.83 "HgN/A
6:20 AM61 °FOvercast.8 mph88%29.83 "HgN/A
5:50 AM61 °FMostly cloudy.7 mph88%29.83 "HgN/A
5:20 AM63 °FDrizzle. Overcast.10 mph88%29.83 "HgN/A
4:50 AM63 °FPartly cloudy.10 mph88%29.83 "Hg4 mi
4:20 AM64 °FPartly cloudy.8 mph83%29.80 "HgN/A
3:50 AM64 °FOvercast.8 mph88%29.80 "HgN/A
3:20 AM63 °FOvercast.6 mph88%29.83 "HgN/A
2:50 AM63 °FPartly cloudy.8 mph94%29.83 "HgN/A
2:20 AM63 °FPartly cloudy.6 mph94%29.83 "HgN/A
1:50 AM63 °FOvercast.6 mph88%29.83 "HgN/A
1:20 AM63 °FPassing clouds.5 mph88%29.83 "HgN/A
12:50 AM63 °FLight rain. Partly cloudy.6 mph94%29.86 "HgN/A
12:20 AM63 °FPassing clouds.5 mph94%29.86 "HgN/A
Weather by CustomWeather, © 2016

See weather overviewHow to use our weather pages